Temperature
20 18 18 18 18 19 19 18 18 18 19 18 17 17 17 17 17 17 17 17 18 18 18 18 18 18 17 17 17 17 17 16 16 16 16 16 15 15 15 15 15 15 15 15
18 18 19 19 19 19 19 18 18 18 19 18 17 17 17 17 17 17 17 17 18 18 18 18 18 18 17 17 17 17 17 16 16 16 16 15 15 15 15 15 15 15 15 15
19 19 20 20 19 19 19 18 18 19 19 18 18 17 17 17 17 17 17 17 18 18 18 18 18 18 17 17 17 17 17 16 16 16 16 15 15 15 15 15 15 15 15 15
19 19 20 20 19 19 18 19 19 19 18 17 18 16 17 17 16 16 17 17 17 18 18 18 18 17 17 17 17 17 17 16 16 16 16 16 15 15 15 15 15 15 15 15
19 20 20 20 20 20 19 19 19 19 18 17 17 16 16 16 17 16 16 17 17 18 18 18 18 18 17 17 17 17 17 16 16 16 16 16 15 15 15 15 15 15 15 14
19 20 20 20 20 20 19 18 17 16 16 17 17 16 16 16 17 17 17 17 18 18 18 18 18 18 17 17 17 17 16 16 16 16 16 16 15 15 15 15 15 15 15 15
19 19 20 20 20 19 18 17 16 16 16 16 16 16 16 17 17 17 17 18 18 18 18 18 18 17 17 17 17 17 16 16 16 16 16 16 16 15 15 15 15 15 15 15
17 17 19 19 19 18 18 17 16 17 16 16 16 16 16 17 17 18 18 18 18 18 18 18 18 18 17 17 17 17 16 16 16 16 16 16 16 15 15 15 15 15 15 15
17 17 18 19 19 18 18 16 16 15 16 16 15 16 16 17 17 16 16 17 17 17 18 18 18 17 17 17 17 16 16 16 16 16 16 16 15 15 15 15 15 15 15 15
17 17 18 18 19 18 18 16 15 15 16 16 16 16 16 17 16 16 15 15 16 17 17 17 17 17 17 17 17 16 16 16 16 16 16 16 15 15 15 15 15 15 15 15
16 16 17 17 18 18 17 16 15 14 15 15 16 16 17 16 16 15 15 16 16 17 17 17 17 17 17 17 16 16 16 16 16 16 16 15 15 15 15 15 15 15 15 15
15 14 15 16 17 17 17 16 15 16 15 14 14 15 17 16 16 16 15 16 16 16 17 17 17 17 17 16 16 16 16 16 16 15 15 15 15 15 15 15 15 15 15 15
15 14 15 15 16 16 17 16 15 14 14 13 14 16 16 15 15 15 15 16 16 16 16 16 16 16 16 16 16 16 16 16 15 15 15 15 15 15 15 15 15 15 15 15
15 14 14 15 15 16 16 16 15 15 14 14 14 15 15 15 14 15 15 15 16 15 16 16 16 16 16 16 16 15 15 15 15 15 15 15 15 15 15 15 15 15 14 14
14 14 14 14 15 16 16 16 15 15 14 14 15 15 15 15 14 15 15 15 15 15 15 15 15 15 16 15 15 15 15 15 15 15 15 15 14 14 14 14 14 14 14 14
12 14 14 15 15 15 15 15 15 15 14 14 14 14 14 15 15 14 14 15 15 15 15 15 15 15 15 15 15 15 15 15 15 14 14 14 14 14 14 14 14 14 14 14
12 12 13 13 14 15 14 15 14 14 14 14 14 14 14 13 14 14 14 15 15 15 15 15 15 15 15 15 15 15 15 15 14 14 14 14 14 14 14 14 14 14 14 14
11 11 11 12 13 14 14 14 15 14 14 14 14 13 13 14 14 15 15 15 15 15 15 15 15 15 15 15 15 14 14 14 14 14 14 14 14 14 13 13 13 13 13 13
10 11 10 11 12 12 14 14 14 14 14 13 13 13 13 13 14 14 15 15 15 15 15 15 15 15 15 15 14 14 14 14 14 14 13 13 13 13 13 13 13 13 13 13
10 10 10 10 12 13 13 14 14 14 14 13 13 12 12 13 12 13 15 15 15 15 15 15 15 15 15 14 14 14 14 14 13 13 13 13 13 13 13 13 13 13 13 13
10 10 10 10 11 11 12 13 14 14 13 13 13 13 12 12 13 14 15 15 15 15 15 15 15 15 15 14 14 14 14 13 13 13 13 13 13 13 13 13 12 12 12 12
10 10 9 9 10 11 12 12 12 12 13 13 13 13 13 13 14 14 14 15 15 14 15 15 15 14 14 14 14 13 13 13 13 13 13 13 12 12 12 12 12 12 12 12
9 9 9 10 11 12 12 12 13 13 13 13 13 13 13 13 13 14 14 14 14 14 14 14 14 14 14 14 14 13 13 13 13 12 12 12 12 12 12 12 12 12 12 12
8 9 8 9 10 11 12 12 13 13 13 13 13 13 13 13 13 13 13 13 14 14 14 14 14 14 14 14 13 13 13 13 12 12 12 12 12 12 12 12 11 11 11 11
8 8 8 8 9 10 12 12 13 13 12 12 12 13 13 13 12 13 13 13 13 13 13 13 13 13 13 13 13 13 12 12 12 12 12 12 11 11 11 11 11 11 11 11
7 8 8 9 10 9 11 12 12 12 12 12 12 12 12 12 12 12 12 13 13 13 13 13 13 13 13 13 12 12 12 12 12 11 11 11 11 11 11 11 11 11 11 10
Wind_Speed
3 4 2 6 6 4 4 3 2 3 2 3 4 6 6 3 4 5 5 5 5 6 4 2 2 4 4 4 4 4 4 3 3 2 2 2 1 1 2 2 3 4 5 5
4 2 5 4 4 4 3 2 2 3 0 3 3 5 5 3 5 6 7 7 7 5 2 2 2 3 4 4 4 4 4 4 3 2 2 1 1 1 1 1 3 4 4 4
4 4 1 3 3 3 3 5 5 3 2 1 1 5 5 3 3 3 5 5 6 7 6 5 4 4 4 4 5 5 4 4 3 3 3 3 3 3 2 2 2 2 3 3
2 3 1 2 3 4 4 5 5 3 1 2 1 3 6 4 3 4 5 5 6 6 6 5 5 5 5 5 4 4 4 4 3 4 4 4 2 1 1 0 0 1 2 3
3 2 2 3 4 5 5 1 2 2 3 1 0 2 7 2 4 6 6 7 7 6 7 7 7 7 6 5 5 4 4 3 3 4 5 4 3 2 1 1 1 1 2 2
4 2 3 4 2 3 3 4 4 4 3 2 3 4 6 4 6 5 5 6 6 6 6 6 5 5 4 4 4 4 4 4 3 4 4 5 5 3 3 2 1 1 1 1
4 4 2 1 2 3 5 5 3 3 2 5 3 4 7 5 5 5 6 6 5 5 5 5 6 5 5 5 5 4 5 4 4 4 4 4 5 5 5 3 3 2 1 0
1 5 3 1 4 4 3 7 6 4 4 4 2 5 6 4 3 2 3 3 3 4 4 5 6 6 6 6 6 5 5 4 4 4 4 4 4 3 3 3 3 3 2 2
3 5 4 2 1 6 5 3 5 5 1 2 5 6 6 2 2 2 0 2 3 4 4 4 4 5 5 6 6 6 6 4 4 5 4 4 3 3 3 3 2 2 2 1
5 3 5 3 3 3 4 7 5 4 3 3 5 4 4 4 4 2 2 2 3 3 3 3 4 4 4 4 4 4 5 5 4 4 4 4 4 4 3 3 3 2 2 1
3 3 4 3 1 2 2 3 4 3 4 4 3 6 4 6 5 4 3 3 3 3 3 3 3 3 3 3 4 4 4 3 3 3 3 3 3 3 3 3 3 3 2 2
2 4 3 5 4 2 3 5 6 4 3 4 3 6 4 2 2 3 2 2 2 3 3 3 2 3 3 3 3 4 4 3 3 3 3 3 2 2 2 2 3 3 3 2
3 4 1 6 5 3 1 2 3 4 4 4 4 6 3 3 1 1 2 2 2 2 3 3 2 3 3 3 3 3 3 3 3 3 3 3 2 2 2 2 2 2 2 2
4 3 5 7 6 3 3 2 3 4 4 5 8 8 7 5 2 1 1 2 2 2 3 3 2 2 2 3 3 3 2 2 2 3 3 3 2 3 3 2 2 2 2 2
4 3 4 7 7 5 5 6 5 6 7 8 8 7 8 6 4 3 3 3 3 2 3 3 3 3 2 2 2 2 2 2 3 3 3 2 2 2 2 2 2 2 2 2
2 2 1 4 4 4 5 7 6 6 6 7 5 7 6 3 1 1 2 4 4 4 4 4 4 3 3 3 3 3 3 2 3 3 3 2 2 2 2 2 2 2 2 2
1 3 2 4 5 3 5 5 5 4 4 5 6 6 2 2 2 4 4 4 5 5 5 5 5 5 5 5 4 4 4 3 3 3 2 2 2 2 2 2 2 2 2 2
4 4 3 1 2 5 6 2 4 4 3 4 3 3 3 4 4 3 4 4 4 4 5 5 5 4 4 4 4 3 3 3 4 3 2 2 2 2 2 2 2 1 1 2
5 6 3 2 3 6 6 3 2 3 4 2 3 3 2 1 2 2 2 2 4 5 6 6 6 5 4 5 5 4 3 3 3 3 3 3 3 3 2 2 2 2 2 2
3 4 4 3 3 6 5 4 3 2 3 3 1 1 1 2 1 5 4 3 4 4 4 4 4 3 4 4 5 6 5 4 4 5 4 4 4 4 3 3 2 2 2 3
2 2 3 4 5 6 5 5 1 3 5 4 2 2 2 3 5 5 4 4 3 3 3 3 4 5 5 5 6 6 5 6 6 5 4 3 3 4 4 3 2 2 2 2
4 4 4 4 4 6 3 2 2 4 3 3 3 3 3 4 4 4 4 3 2 2 2 3 4 4 4 6 7 7 7 6 4 4 4 4 3 3 2 3 2 2 2 2
4 5 4 6 6 3 1 2 3 2 3 3 3 4 3 3 5 5 5 4 3 3 3 3 5 5 4 6 7 8 7 5 5 5 5 4 3 3 3 3 3 2 2 3
3 1 2 3 5 5 5 4 4 3 4 5 4 4 3 4 5 5 5 4 4 3 3 3 4 5 5 5 6 6 6 5 6 6 5 4 4 3 3 3 3 3 3 3
4 2 2 4 6 6 5 4 5 5 5 4 4 4 4 3 5 5 5 5 4 4 3 3 5 5 6 5 5 5 5 6 6 6 5 4 4 4 4 3 3 4 5 5
4 5 5 6 6 4 6 5 5 5 6 5 4 5 4 4 5 5 5 5 4 4 2 3 4 5 5 4 4 4 5 6 6 5 5 5 4 4 4 3 2 4 4 5
Wind_Direction
47 80 200 215 196 185 171 174 240 260 228 163 223 258 272 223 202 210 211 212 219 228 238 206 174 160 153 145 143 143 136 129 115 97 94 86 64 32 28 37 73 89 100 109
41 278 232 195 170 155 167 190 252 289 205 175 241 277 277 215 210 211 207 210 216 220 224 205 175 161 166 165 165 162 162 154 153 146 138 128 118 88 25 23 58 83 101 117
185 244 188 144 148 156 201 200 219 233 354 29 350 312 291 270 223 212 205 206 212 207 206 201 189 185 173 176 182 179 176 169 164 140 112 85 62 45 33 24 24 38 87 108
236 264 160 164 202 170 239 230 207 194 158 279 168 285 287 279 269 237 222 212 215 213 204 197 193 192 189 191 184 176 172 166 163 147 142 141 143 153 206 213 8 35 78 101
252 226 169 200 222 187 215 173 159 187 178 271 298 218 285 307 271 256 234 221 218 212 201 198 199 198 192 181 174 172 166 168 163 156 159 153 152 166 151 103 88 56 51 83
252 255 209 216 221 177 140 79 55 49 80 277 228 196 276 245 239 254 237 220 216 209 201 198 191 179 171 165 163 163 165 178 171 160 162 163 164 158 141 131 123 78 49 52
327 320 295 160 74 35 91 95 27 352 351 259 232 207 253 255 242 229 229 222 210 198 189 186 181 178 172 172 173 167 168 180 177 169 174 175 174 169 173 175 171 164 151 205
251 297 289 252 177 179 161 144 160 204 237 278 279 238 258 273 279 252 222 199 173 179 183 185 185 183 182 184 180 175 178 184 179 177 185 181 174 170 184 187 178 183 197 209
181 263 299 301 213 144 145 167 169 146 182 265 278 289 305 336 353 7 85 147 173 184 186 188 181 180 183 185 186 184 183 184 186 185 176 176 177 178 188 187 174 185 200 192
161 251 293 307 63 39 146 144 107 127 170 260 287 279 264 273 266 264 230 211 205 181 175 176 173 180 184 184 176 169 173 179 182 180 181 182 186 188 184 169 175 187 194 167
140 182 303 351 184 197 97 108 118 130 161 175 261 274 237 225 223 217 225 217 195 183 182 180 180 176 168 157 159 167 173 167 165 170 172 166 181 184 171 177 191 190 184 168
132 136 254 271 273 232 182 168 152 166 223 190 205 266 289 250 224 189 207 215 192 179 168 158 157 143 142 153 160 168 171 173 180 172 159 163 159 150 161 188 201 186 186 181
136 120 11 336 337 355 121 154 151 143 140 174 195 258 323 22 50 154 190 200 169 149 137 128 133 154 169 170 166 167 165 174 173 159 153 149 151 157 180 196 193 178 174 162
126 139 184 215 235 235 248 225 181 156 183 217 226 251 294 313 307 288 227 193 160 155 151 142 152 166 169 171 171 167 168 161 143 143 146 158 180 188 195 187 169 168 163 160
115 178 227 247 257 247 241 244 220 211 208 210 237 242 262 262 247 230 204 166 147 150 161 167 173 170 161 157 163 163 162 152 145 137 141 174 183 173 162 161 166 159 160 170
85 171 246 286 284 265 262 260 238 235 230 227 241 260 267 270 208 198 190 168 176 189 189 183 178 168 171 178 180 169 173 174 155 155 165 167 147 133 136 155 160 148 148 155
146 149 151 268 303 331 274 245 219 216 218 195 221 247 291 302 242 216 200 191 204 205 202 196 193 192 190 189 185 182 185 169 158 159 156 146 150 151 157 151 129 146 168 157
167 149 158 245 359 247 245 249 197 199 232 216 228 258 245 253 262 236 201 195 215 216 209 209 207 205 202 185 179 172 153 153 158 158 155 151 147 162 158 144 152 169 164 169
177 155 152 158 227 272 290 279 199 198 257 261 246 278 304 335 7 311 256 227 230 224 213 209 205 202 190 180 173 157 157 157 157 170 177 180 172 165 153 163 187 183 171 179
98 129 142 155 198 243 255 282 290 167 261 307 262 266 348 56 16 273 278 281 270 256 216 197 187 179 179 184 167 160 171 174 192 201 199 188 177 169 175 193 205 203 191 200
84 112 168 190 221 259 273 299 8 170 252 296 257 246 218 224 235 264 281 276 266 267 224 182 173 185 194 184 170 176 184 202 210 201 188 182 182 183 183 185 193 184 184 181
189 179 190 171 206 253 303 60 155 230 286 291 272 266 258 273 284 293 287 280 282 292 226 181 181 198 194 180 176 186 204 213 195 179 181 191 194 195 183 176 186 173 162 172
209 200 194 195 219 258 291 233 265 259 279 284 273 276 264 288 302 306 302 295 289 275 232 201 188 196 198 189 185 197 212 198 179 178 190 198 197 196 183 180 182 178 173 183
274 214 184 248 266 278 293 292 298 290 280 283 271 269 263 278 290 293 291 289 285 275 245 216 194 196 210 203 199 208 205 185 176 186 195 193 189 195 192 189 185 184 190 194
245 212 221 256 277 301 294 281 287 295 294 295 296 281 256 256 280 275 271 270 267 269 263 217 203 207 213 204 204 206 196 181 184 193 197 197 194 192 198 201 206 208 215 205
207 197 200 237 246 238 265 281 294 292 288 285 289 296 291 265 265 272 266 265 263 260 248 222 214 214 216 203 211 210 195 185 183 194 201 201 200 200 202 206 238 238 234 236
Height
1513 1519 1524 1522 1521 1523 1526 1529 1532 1528 1523 1525 1527 1526 1522 1521 1522 1522 1523 1523 1524 1526 1528 1529 1531 1532 1533 1535 1536 1537 1537 1538 1539 1539 1540 1540 1541 1541 1542 1542 1542 1542 1542 1542
1519 1522 1517 1516 1518 1521 1525 1530 1530 1526 1522 1524 1526 1525 1520 1519 1520 1519 1520 1521 1522 1524 1526 1528 1529 1530 1532 1533 1535 1536 1537 1538 1539 1539 1540 1541 1541 1542 1542 1542 1543 1543 1543 1543
1520 1518 1513 1515 1519 1523 1525 1528 1528 1527 1524 1524 1527 1528 1522 1518 1518 1518 1518 1519 1520 1522 1524 1526 1527 1529 1530 1532 1534 1535 1536 1537 1538 1539 1540 1541 1541 1542 1542 1543 1543 1543 1543 1543
1517 1514 1514 1516 1519 1521 1527 1520 1521 1524 1530 1535 1531 1541 1525 1519 1517 1516 1516 1517 1517 1519 1521 1523 1525 1527 1529 1531 1533 1535 1536 1537 1538 1539 1539 1540 1541 1542 1542 1543 1543 1544 1544 1544
1517 1514 1514 1517 1516 1516 1519 1516 1520 1523 1528 1535 1534 1539 1531 1520 1519 1515 1514 1514 1515 1517 1519 1521 1523 1525 1527 1529 1531 1533 1535 1536 1537 1538 1539 1540 1541 1542 1543 1543 1544 1544 1544 1544
1514 1511 1512 1512 1511 1513 1515 1520 1524 1529 1534 1542 1534 1539 1534 1523 1516 1512 1511 1511 1512 1514 1516 1519 1521 1524 1526 1528 1530 1532 1534 1535 1536 1538 1538 1540 1540 1541 1542 1543 1543 1544 1544 1545
1518 1513 1510 1510 1513 1515 1517 1530 1545 1545 1549 1545 1532 1534 1529 1514 1510 1509 1508 1509 1510 1512 1514 1516 1519 1521 1524 1526 1528 1530 1532 1534 1535 1537 1538 1539 1540 1541 1542 1543 1543 1544 1544 1545
1527 1527 1513 1510 1512 1517 1520 1527 1544 1551 1551 1545 1533 1533 1521 1510 1508 1507 1507 1507 1509 1510 1512 1514 1516 1519 1521 1524 1526 1529 1531 1532 1534 1535 1537 1538 1539 1540 1541 1542 1543 1543 1544 1544
1527 1526 1512 1509 1509 1512 1520 1525 1526 1538 1540 1545 1538 1528 1516 1508 1507 1506 1506 1507 1507 1509 1511 1513 1515 1517 1520 1522 1524 1527 1529 1531 1533 1534 1535 1537 1538 1539 1540 1541 1542 1543 1543 1544
1519 1525 1516 1511 1510 1512 1514 1520 1531 1538 1546 1548 1539 1532 1526 1513 1510 1508 1507 1506 1507 1509 1510 1512 1514 1516 1518 1521 1523 1525 1527 1529 1531 1532 1534 1535 1536 1538 1539 1540 1541 1542 1542 1543
1517 1524 1521 1516 1515 1517 1518 1522 1527 1535 1538 1546 1545 1535 1511 1508 1506 1506 1506 1506 1507 1508 1509 1511 1513 1515 1517 1519 1521 1523 1525 1527 1529 1530 1532 1533 1535 1536 1537 1539 1540 1541 1541 1542
1518 1525 1528 1520 1513 1511 1513 1517 1525 1533 1536 1538 1541 1533 1505 1505 1504 1505 1505 1506 1507 1508 1509 1510 1512 1514 1516 1518 1520 1521 1523 1525 1527 1528 1530 1531 1533 1534 1535 1537 1538 1539 1540 1540
1517 1525 1532 1529 1524 1516 1515 1516 1519 1525 1532 1538 1539 1528 1505 1504 1504 1505 1505 1506 1506 1507 1508 1509 1511 1512 1514 1516 1518 1520 1521 1523 1525 1527 1528 1530 1531 1532 1533 1535 1536 1537 1538 1539
1514 1523 1529 1531 1525 1518 1517 1515 1517 1522 1530 1532 1529 1519 1509 1506 1505 1504 1505 1505 1505 1506 1507 1508 1509 1511 1512 1514 1516 1518 1520 1522 1523 1525 1526 1527 1529 1530 1532 1533 1534 1535 1536 1537
1514 1521 1520 1518 1515 1515 1514 1513 1514 1517 1518 1522 1517 1514 1507 1504 1503 1503 1503 1504 1505 1506 1506 1507 1509 1510 1511 1513 1515 1516 1518 1520 1521 1523 1524 1525 1527 1529 1530 1531 1532 1533 1534 1535
1515 1520 1519 1518 1513 1514 1514 1511 1511 1512 1512 1513 1512 1510 1502 1501 1501 1502 1502 1503 1504 1504 1505 1506 1508 1509 1510 1511 1513 1514 1516 1518 1519 1520 1522 1523 1525 1526 1527 1529 1530 1531 1532 1533
1518 1520 1523 1524 1517 1513 1516 1509 1508 1508 1507 1507 1510 1506 1501 1500 1500 1500 1500 1501 1502 1503 1504 1505 1506 1507 1509 1510 1511 1513 1514 1516 1517 1518 1519 1521 1522 1524 1525 1527 1528 1529 1529 1530
1517 1520 1525 1526 1521 1523 1512 1502 1501 1503 1503 1502 1501 1500 1499 1498 1497 1497 1498 1498 1499 1501 1502 1503 1504 1506 1507 1509 1510 1511 1513 1514 1515 1516 1517 1518 1520 1521 1523 1524 1525 1526 1527 1528
1512 1518 1525 1528 1526 1519 1508 1501 1501 1502 1502 1500 1500 1498 1498 1497 1496 1496 1496 1497 1498 1498 1500 1501 1502 1504 1505 1506 1508 1509 1511 1512 1513 1514 1515 1516 1517 1518 1520 1521 1522 1523 1525 1525
1512 1515 1522 1526 1524 1522 1508 1499 1497 1500 1503 1499 1498 1497 1497 1496 1500 1496 1494 1495 1496 1496 1497 1499 1500 1502 1503 1504 1506 1507 1508 1509 1510 1511 1513 1514 1515 1516 1517 1518 1519 1520 1522 1522
1516 1519 1522 1524 1523 1514 1503 1498 1497 1507 1504 1497 1496 1495 1496 1496 1495 1494 1492 1493 1493 1494 1495 1496 1497 1498 1500 1501 1502 1503 1504 1505 1507 1509 1510 1512 1513 1514 1515 1516 1517 1517 1518 1519
1515 1518 1521 1523 1522 1516 1500 1499 1501 1501 1497 1495 1494 1493 1493 1492 1492 1491 1491 1490 1490 1491 1492 1493 1494 1496 1497 1498 1499 1500 1501 1502 1504 1506 1507 1509 1510 1511 1512 1513 1513 1514 1515 1515
1512 1511 1511 1512 1510 1502 1499 1498 1497 1496 1495 1493 1492 1491 1491 1490 1489 1489 1488 1488 1488 1488 1489 1490 1491 1492 1493 1495 1496 1496 1497 1499 1501 1502 1504 1505 1507 1508 1509 1509 1510 1510 1511 1512
1508 1506 1507 1506 1501 1498 1497 1495 1494 1493 1492 1491 1490 1489 1489 1488 1487 1486 1486 1485 1486 1485 1486 1486 1487 1488 1489 1490 1492 1493 1494 1496 1497 1498 1500 1501 1503 1504 1505 1506 1507 1507 1507 1508
1506 1505 1505 1504 1499 1496 1493 1493 1492 1491 1490 1488 1487 1487 1486 1485 1483 1483 1482 1482 1482 1482 1482 1483 1483 1484 1485 1487 1488 1489 1491 1492 1493 1495 1496 1497 1499 1500 1501 1502 1503 1503 1504 1504
1501 1502 1502 1500 1495 1495 1492 1491 1490 1488 1487 1485 1484 1482 1482 1481 1480 1479 1479 1478 1478 1478 1479 1479 1480 1481 1482 1483 1484 1485 1487 1488 1489 1490 1492 1493 1495 1496 1497 1497 1498 1499 1500 1500